sat.trackr.live / text

‹ back to catalog

STARLINK-32756

NORAD 62752 · 2025-014T

PAYLOAD ACTIVE UNKNOWN

§ Identity

Operator
Country
US
Launch date
2025-01-21
Launch site
AFETR
Launch vehicle
Mass (kg)
RCS (m²)

Purposes: comms

External: N2YO · Heavens-Above · Gunter

§ Orbital elements

Epoch: 2026-05-25T04:44:40.371936Z

Period
94.27 min
Inclination
42.9999°
Eccentricity
0.0001274
Mean motion
15.27593522 rev/d
Perigee alt
482.1 km
Apogee alt
483.9 km
Semi-major
6,861.1 km
B*
4.9832e-4
RAAN
82.7128°
Arg perigee
260.2450°
Mean anomaly
99.8258°
Rev number
7,495

§ Raw data

STARLINK-327561 62752U 25014T   26145.19768949  .00013481  00000+0  49832-3 0  99902 62752  42.9999  82.7128 0001274 260.2450  99.8258 15.27593522 74954

JSON: /api/v1/satellites/62752 · /tle

For live sub-satellite position, see the globe view (requires WebGL).

§ Visibility from observer

Set your observer location to see the next 7 days of passes ≥ 10°. The values pass through the URL so the page stays shareable.

No JS? Fill the form by hand. The geolocation button needs JavaScript.